ATLAS 5 CENTAUR DEB, 44006

Orbit data source: Space-Track

ATLAS 5 CENTAUR DEB, 44006 is space debris in HEO originally from a launch on Wed, 17 Sep 2014 UTC launched from the Air Force Eastern Test Range (AFETR). Debris objects in space refer to the collection of defunct objects orbiting the Earth. Examples of debris include non-operational satellites, rocket bodies, and fragments generated from explosions, collisions, or faulty payload assembly.

Loading next visibility...
Identifier
44006, 2014-055BM
Orbit
HEO
Country
Flag of USUS
Related business
Flag of USUnited Launch Alliance/Lockheed Martin (US)
Manufacturer
Unknown
Mission
Spacecraft
Bus & Motor
Unknown
Mass
Unknown
Launch date (UTC)
2014-09-17 (12 years ago)
Launch vehicle
Unknown
Launch site
Air Force Eastern Test Range (AFETR)
Object type
Payload
Rocket body
Debris
Shape & HBR
Unknown shape, 1.1 m
Radar Cross Section
Medium (>0.1 m² and <1 m²)

Expand to show TLE details & history
Last TLE update: 2 days ago

TLE from 2 days ago
0 ATLAS 5 CENTAUR DEB
1 44006U 14055BM  26171.01583785 -.00000056  00000-0  00000+0 0  9994
2 44006  20.5793 127.3419 4858348 197.7994 136.3678  1.88614572 53302
Epoch: 2026-06-20T00:22Z
TLE epoch observation values (Epoch: 2026-06-20T00:22:48.390Z)
Latitude
-0°
Longitude
-146.64172°
Altitude
32,966.644 km
Speed
2.42 km/s
True Right ascension
08h 29m 11s
True Declination
0° 00' 00"
Sunlit
Object was in daylight at epoch
Visualization orbit readout
Latitude
Unknown
Longitude
Unknown
Altitude
Unknown
Speed
Unknown
Apparent Right ascension
Unknown
Apparent Declination
Unknown
Sunlit
N/A
Visualization observer readout
Local Sidereal Time
21:35:47
Azimuth
Unknown
Elevation
Unknown
Doppler factor
Unknown
Orbital elements
Apogee altitude
34,738.692 km
Perigee altitude
7,850.122 km
Semi-major axis
27,672.544 km
Eccentricity
0.48583
Inclination
20.5793°
RAAN
127.3419°
Arg. of periapsis
197.7994°
True anomaly
162.20892°
Mean anomaly
136.3678°
Eccentric anomaly
150.2012°
Mean motion
0.47149 °/min
Orbital period
763.54 mins
BSTAR
0
Loading maneuver chart data...
Computing Atmospheric mass density...

Documentation

Showing up to 5 results
|